Location: Bagnara
(41.0500°N, 14.7833°E)
Time: 11:39:27
(UTC+00:00)

Alouette 2 Rocket - Pass Details

Date: 20 June 2021
Orbit: 501 x 2650 km, 79.8° (Epoch: 28 July)

Event Time Altitude Azimuth Distance (km) Brightness Sun altitude
Rises 01:36:49 0° 351° (N) 2,605 7.5 -16.2°
Reaches altitude 10° 01:38:49 10° 355° (N) 1,730 6.6 -16.0°
Maximum altitude 01:42:24 65° 78° (ENE) 617 3.7 -15.6°
Drops below altitude 10° 01:46:47 10° 161° (SSE) 2,121 6.0 -15.1°
Enters shadow 01:48:03 - 163° (SSE) 2,670 6.5 -14.9°
